User: anonymous   Login
Location: Fort Wayne
(41.1310°N, 85.1290°W)
Time: 23:23:45
(UTC-04:00)
Language:

COSMOS 2406 - Orbit

View from above orbital plane
View from above orbital plane
View from above satellite
View from above satellite

Ground track
Ground track

The orbit data is extracted from the following two-line orbital elements,

1 28352U 04021A   15107.72437536 -.00000060  00000-0 -68946-5 0  9994
2 28352 071.0021 336.9399 0015642 219.3723 174.5730 14.11392169559171
Epoch (UTC): 17 April 2015 17:23:06
Eccentricity: 0.0015642
inclination: 71.0021°
perigee height: 843 km
apogee height: 866 km
right ascension of ascending node: 336.9399°
argument of perigee: 219.3723°
revolutions per day: 14.11392169
mean anomaly at epoch: 174.5730°
orbit number at epoch: 55917

The dashed part of the orbit path shows where the satellite is in the earth's shadow,  

DLR